Location: C.E.K. Mees Observatory
(42.7003°N, 77.4088°W)
Time: 10:05:17
(UTC-04:00)

Tiangong 1 - Pass Details

Date: 13 October 2017
Orbit: 293 x 320 km, 42.8° (Epoch: 20 October)

Event Time Altitude Azimuth Distance (km) Brightness Sun altitude
Rises 19:53:18 0° 279° (W) 2,040 6.6 -16.1°
Reaches altitude 10° 19:55:20 10° 273° (W) 1,204 4.9 -16.4°
Maximum altitude 19:57:55 44° 199° (SSW) 440 1.4 -16.9°
Enters shadow 19:58:12 42° 177° (S) 456 1.3 -17.0°
